Location: A O Calhoun Middle School
(33.2198°N, 97.1397°W)
Time: 03:36:02
(UTC+00:00)

Cosmos 1538 Rocket - Pass Details

Date: 10 July 2022
Orbit: 752 x 791 km, 74.0° (Epoch: 07 August)

Event Time Altitude Azimuth Distance (km) Brightness Sun altitude
Exits shadow 09:15:58 22° 153° (SSE) 1,613 5.4 -22.4°
Maximum altitude 09:18:39 38° 101° (E) 1,157 5.1 -22.1°
Drops below altitude 10° 09:23:25 10° 35° (NE) 2,288 7.6 -21.4°
Sets 09:25:54 0° 27° (NNE) 3,213 8.6 -21.1°
